When you browse on this site, cookies collect data to enhance your experience and personalize the content and advertising you see.
Visit our Privacy Policy to learn more. By continuing to use the site, you agree to this use of cookies and data.
  • In Portugal
  • List of Countries
  • For 7 days
  • Water Temperature
  • Weather Map
  • Weather Widgets
  • user-avatar
    Login

    Hourly Weather Berat

    Today, 30 May, Saturday

    Time Temperature Precipitation Wind Pressure Humidity
    00:00 +13°C° 0 mm 1 mps 745 mmHg 84%
    01:00 +13°C° 0 mm 1 mps 745 mmHg 85%
    02:00 +13°C° 0 mm 1 mps 745 mmHg 84%
    03:00 +12°C° 0 mm 1 mps 745 mmHg 84%
    04:00 +12°C° 0 mm 1 mps 745 mmHg 84%
    05:00 +14°C° 0 mm 1 mps 745 mmHg 79%
    06:00 +15°C° 0 mm 1 mps 745 mmHg 74%
    07:00 +18°C° 0 mm 1 mps 745 mmHg 68%
    08:00 +19°C° 0 mm 1 mps 745 mmHg 62%
    09:00 +20°C° 0 mm 1 mps 745 mmHg 57%
    10:00 +22°C° 0 mm 1 mps 745 mmHg 51%
    11:00 +21°C° 0.1 mm 2 mps 744 mmHg 50%
    12:00 +21°C° 0.1 mm 3 mps 744 mmHg 49%
    13:00 +22°C° 0.1 mm 3 mps 744 mmHg 49%
    14:00 +21°C° 0.3 mm 3 mps 744 mmHg 52%
    15:00 +21°C° 0.3 mm 3 mps 744 mmHg 56%
    16:00 +20°C° 0.3 mm 3 mps 743 mmHg 60%
    17:00 +19°C° 0.1 mm 3 mps 743 mmHg 66%
    18:00 +17°C° 0.1 mm 2 mps 743 mmHg 72%
    19:00 +16°C° 0.1 mm 1 mps 743 mmHg 79%
    20:00 +15°C° 0 mm 1 mps 743 mmHg 80%
    21:00 +15°C° 0 mm 1 mps 744 mmHg 81%
    22:00 +14°C° 0 mm 1 mps 744 mmHg 83%
    23:00 +14°C° 0 mm 1 mps 744 mmHg 83%

    Tomorrow, 31 May, Sunday

    Time Temperature Precipitation Wind Pressure Humidity
    00:00 +14°C° 0 mm 1 mps 744 mmHg 82%
    01:00 +13°C° 0 mm 1 mps 743 mmHg 82%
    02:00 +13°C° 0 mm 1 mps 743 mmHg 82%
    03:00 +13°C° 0 mm 1 mps 743 mmHg 82%
    04:00 +13°C° 0 mm 2 mps 743 mmHg 81%
    05:00 +14°C° 0 mm 1 mps 743 mmHg 77%
    06:00 +16°C° 0 mm 1 mps 743 mmHg 73%
    07:00 +18°C° 0 mm 1 mps 743 mmHg 68%
    08:00 +18°C° 0.2 mm 2 mps 743 mmHg 64%
    09:00 +20°C° 0.2 mm 2 mps 743 mmHg 60%
    10:00 +21°C° 0.2 mm 2 mps 743 mmHg 56%
    11:00 +21°C° 0.7 mm 3 mps 743 mmHg 58%
    12:00 +21°C° 0.7 mm 4 mps 742 mmHg 60%
    13:00 +21°C° 0.7 mm 4 mps 742 mmHg 61%
    14:00 +21°C° 0.7 mm 4 mps 742 mmHg 63%
    15:00 +20°C° 0.7 mm 4 mps 742 mmHg 64%
    16:00 +20°C° 0.7 mm 3 mps 742 mmHg 66%
    17:00 +19°C° 0.4 mm 3 mps 742 mmHg 72%
    18:00 +17°C° 0.4 mm 2 mps 742 mmHg 78%
    19:00 +16°C° 0.4 mm 1 mps 741 mmHg 83%
    20:00 +15°C° 0.2 mm 1 mps 742 mmHg 85%
    21:00 +15°C° 0.2 mm 1 mps 742 mmHg 86%
    22:00 +14°C° 0.2 mm 1 mps 742 mmHg 87%
    23:00 +14°C° 0.1 mm 1 mps 742 mmHg 87%

    Day after tomorrow, 1 June, Monday

    Time Temperature Precipitation Wind Pressure Humidity
    00:00 +14°C° 0.1 mm 1 mps 742 mmHg 87%
    01:00 +14°C° 0.1 mm 1 mps 742 mmHg 87%
    02:00 +13°C° 0.1 mm 1 mps 742 mmHg 88%
    03:00 +13°C° 0.1 mm 1 mps 741 mmHg 89%
    04:00 +13°C° 0.1 mm 1 mps 741 mmHg 90%
    05:00 +14°C° 0.1 mm 1 mps 741 mmHg 85%
    06:00 +16°C° 0.1 mm 1 mps 741 mmHg 80%
    07:00 +18°C° 0.1 mm 1 mps 742 mmHg 75%
    08:00 +18°C° 0.2 mm 2 mps 742 mmHg 71%
    09:00 +19°C° 0.2 mm 2 mps 742 mmHg 66%
    10:00 +20°C° 0.2 mm 3 mps 742 mmHg 62%
    11:00 +20°C° 0.2 mm 3 mps 741 mmHg 62%
    12:00 +21°C° 0.2 mm 3 mps 741 mmHg 61%
    13:00 +21°C° 0.2 mm 4 mps 741 mmHg 61%
    14:00 +21°C° 0.3 mm 4 mps 741 mmHg 64%
    15:00 +20°C° 0.3 mm 4 mps 740 mmHg 66%
    16:00 +20°C° 0.3 mm 4 mps 740 mmHg 68%
    17:00 +19°C° 0.1 mm 3 mps 740 mmHg 74%
    18:00 +17°C° 0.1 mm 2 mps 740 mmHg 79%
    19:00 +16°C° 0.1 mm 1 mps 740 mmHg 85%
    20:00 +15°C° 0 mm 1 mps 741 mmHg 86%
    21:00 +15°C° 0 mm 1 mps 741 mmHg 88%
    22:00 +14°C° 0 mm 1 mps 741 mmHg 89%
    23:00 +14°C° 0 mm 1 mps 741 mmHg 89%

    2 June, Tuesday

    Time Temperature Precipitation Wind Pressure Humidity
    00:00 +14°C° 0 mm 1 mps 741 mmHg 88%
    01:00 +14°C° 0 mm 1 mps 740 mmHg 88%
    02:00 +13°C° 0 mm 1 mps 740 mmHg 87%
    03:00 +13°C° 0 mm 1 mps 740 mmHg 87%
    04:00 +13°C° 0 mm 1 mps 740 mmHg 86%
    05:00 +15°C° 0 mm 1 mps 740 mmHg 81%
    06:00 +16°C° 0 mm 1 mps 740 mmHg 76%
    07:00 +17°C° 0 mm 0 mps 741 mmHg 70%
    08:00 +20°C° 0.1 mm 1 mps 741 mmHg 65%
    09:00 +20°C° 0.1 mm 2 mps 741 mmHg 59%
    10:00 +22°C° 0.1 mm 3 mps 741 mmHg 53%
    11:00 +22°C° 0 mm 3 mps 741 mmHg 51%
    12:00 +22°C° 0 mm 4 mps 741 mmHg 50%
    13:00 +22°C° 0 mm 5 mps 740 mmHg 48%
    14:00 +22°C° 0 mm 5 mps 740 mmHg 49%
    15:00 +21°C° 0 mm 5 mps 740 mmHg 50%
    16:00 +21°C° 0 mm 5 mps 740 mmHg 51%
    17:00 +19°C° 0 mm 4 mps 740 mmHg 60%
    18:00 +17°C° 0 mm 3 mps 740 mmHg 69%
    19:00 +16°C° 0 mm 1 mps 740 mmHg 78%
    20:00 +15°C° 0 mm 1 mps 740 mmHg 80%
    21:00 +15°C° 0 mm 1 mps 740 mmHg 82%
    22:00 +14°C° 0 mm 1 mps 741 mmHg 84%
    23:00 +14°C° 0 mm 1 mps 740 mmHg 84%

    3 June, Wednesday

    Time Temperature Precipitation Wind Pressure Humidity
    00:00 +14°C° 0 mm 1 mps 740 mmHg 84%
    01:00 +13°C° 0 mm 1 mps 740 mmHg 85%
    02:00 +13°C° 0 mm 1 mps 740 mmHg 85%
    03:00 +13°C° 0 mm 1 mps 740 mmHg 85%
    04:00 +13°C° 0 mm 1 mps 740 mmHg 85%
    05:00 +15°C° 0 mm 1 mps 740 mmHg 79%
    06:00 +16°C° 0 mm 1 mps 740 mmHg 74%
    07:00 +19°C° 0 mm 1 mps 740 mmHg 68%
    08:00 +19°C° 0 mm 2 mps 740 mmHg 62%
    09:00 +20°C° 0 mm 2 mps 740 mmHg 57%
    10:00 +21°C° 0 mm 3 mps 741 mmHg 51%
    11:00 +22°C° 0 mm 3 mps 740 mmHg 51%
    12:00 +22°C° 0 mm 3 mps 740 mmHg 50%
    13:00 +22°C° 0 mm 4 mps 740 mmHg 49%
    14:00 +22°C° 0 mm 3 mps 740 mmHg 49%
    15:00 +22°C° 0 mm 3 mps 740 mmHg 49%
    16:00 +22°C° 0 mm 3 mps 740 mmHg 49%
    17:00 +20°C° 0 mm 2 mps 740 mmHg 57%
    18:00 +18°C° 0 mm 2 mps 740 mmHg 65%
    19:00 +18°C° 0 mm 1 mps 740 mmHg 73%
    20:00 +18°C° 0 mm 1 mps 741 mmHg 75%
    21:00 +16°C° 0 mm 1 mps 741 mmHg 76%
    22:00 +16°C° 0 mm 1 mps 742 mmHg 78%
    23:00 +16°C° 0.5 mm 1 mps 741 mmHg 83%

    4 June, Thursday

    Time Temperature Precipitation Wind Pressure Humidity
    00:00 +15°C° 0.5 mm 1 mps 741 mmHg 87%
    01:00 +15°C° 0.5 mm 1 mps 741 mmHg 92%
    02:00 +15°C° 0.3 mm 1 mps 741 mmHg 91%
    03:00 +15°C° 0.3 mm 1 mps 741 mmHg 90%
    04:00 +15°C° 0.3 mm 1 mps 741 mmHg 89%
    05:00 +16°C° 0.1 mm 1 mps 741 mmHg 84%
    06:00 +18°C° 0.1 mm 1 mps 742 mmHg 79%
    07:00 +19°C° 0.1 mm 1 mps 742 mmHg 74%
    08:00 +20°C° 0 mm 1 mps 742 mmHg 69%
    09:00 +20°C° 0 mm 2 mps 742 mmHg 65%
    10:00 +21°C° 0 mm 2 mps 742 mmHg 61%
    11:00 +23°C° 0 mm 2 mps 742 mmHg 61%
    12:00 +22°C° 0 mm 3 mps 742 mmHg 61%
    13:00 +22°C° 0 mm 3 mps 742 mmHg 61%
    14:00 +22°C° 0.1 mm 3 mps 742 mmHg 63%
    15:00 +22°C° 0.1 mm 3 mps 742 mmHg 65%
    16:00 +22°C° 0.1 mm 3 mps 742 mmHg 67%
    17:00 +20°C° 0 mm 2 mps 742 mmHg 73%
    18:00 +19°C° 0 mm 2 mps 742 mmHg 79%
    19:00 +18°C° 0 mm 1 mps 742 mmHg 85%
    20:00 +18°C° 0 mm 1 mps 742 mmHg 86%
    21:00 +16°C° 0 mm 1 mps 742 mmHg 87%
    22:00 +15°C° 0 mm 1 mps 743 mmHg 88%
    23:00 +15°C° 0 mm 1 mps 743 mmHg 87%
    Show more